Find Starlink 5325

NORAD ID: 55292 Int'l Des: 2023-010 Owner: SPXS Country: US Constellation: starlink operational
LEOCIRCULAR

Live Position

Loading 3D Globe...

About Starlink 5325

Description loading...

Upcoming Passes

Passes for default location (London). Set your location on the main map for personalized predictions.

Altitude History

Loading altitude history...

Two-Line Element Set

1 55292U 23010Z 26110.43789545 .00000048 00000-0 11839-4 0 9992
2 55292 69.9986 279.1506 0002856 270.2985 89.7846 14.98330503179528
Epoch: Apr 20, 2026 • Age: 10 hours

Current Status

Altitude 574.1 km
Velocity 7.57 km/s
Sub-Earth Point 5.42°N, 128.96°E
Launch Date Jan 19, 2023
Age 3.2 years
Type internet

Technical Details

Classification Payload
Mass 305.00 kg
Dry Mass 290.00 kg
Total Mass 305.00 kg
Length 0.20 m
Diameter 2.80 m
Span 9.00 m
Shape Box + pan
Manufacturer SPXS
Bus Type Starlink
Phase Status In Orbit
Owner/State SPXS/US

Most Searched